Tracking 31027 objects as of 19-Jul-2025
HD Live streaming from Space Station
objects crossing your sky now

LDPE-3A DEB

Track LDPE-3A DEB now!


NORAD ID: 55267
Int'l Code: 2023-008E
Perigee: 35,244.3 km
Apogee: 35,268.9 km
Inclination: 2.3 °
Period: 1,408.7 minutes
Semi major axis: 41627 km
RCS: Unknown
Launch date: January 15, 2023
Source: United States (US)
Launch site: AIR FORCE EASTERN TEST RANGE (AFETR)

Note: This is SATELLITE DEBRIS
Your satellite tracking list
STARLINK-1243
Track 1 satellite(s)




NASA's NSSDC Master Catalog

Two Line Element Set (TLE):
1 55267U 23008E   25199.29984822 -.00000091  00000-0  00000-0 0  9999
2 55267   2.3123  82.1896 0002955 175.1574 184.6035  1.02218953  4487
Source of the keplerian elements: AFSPC